Location: Alexander
(41.3564°N, 81.5960°W)
Time: 09:31:47
(UTC+00:00)

SKYMED 2 - Pass Details

Date: 24 January 2021
Orbit: 621 x 623 km, 97.9° (Epoch: 02 March)

Event Time Altitude Azimuth Distance (km) Brightness Sun altitude
Rises 23:13:21 0° 17° (NNE) 2,912 6.7 -7.8°
Reaches altitude 10° 23:15:36 10° 22° (NNE) 2,000 5.8 -8.2°
Maximum altitude 23:19:52 53° 100° (E) 764 3.7 -9.0°
Drops below altitude 10° 23:24:05 10° 178° (S) 1,984 6.3 -9.8°
Sets 23:26:18 0° 183° (S) 2,885 7.3 -10.2°
